[[{"header":{"parameterUnit":"m.s-1","parameterCategory":1,"la1":30.2991,"la2":30.254,"lo1":-89.0895,"lo2":-89.0444,"dy":0.0017,"dx":0.0017,"nx":28,"ny":28,"refTime":"2023-07-24T09:00:00:Z","depth":0,"parameterNumber":2,"parameterNumberName":"U-component_of_WINDS"},"data":[0,0,0,0,0,0,0,0,0,0,0,0,0,0,0,0,0,0,0,0,0,0,0,0,0,0,0,0,0,0,0,0,0,0,0,0,0,0,0,0,0,0,0,0,0,0,0,0,0,0,0,0,0,0,0,0,0,0,-0.7583,-0.7582,0,-0.7528,-0.7527,-0.7526,-0.7472,-0.7471,-0.7471,-0.747,-0.7414,-0.7413,-0.7412,0,0,0,0,0,0,0,0,0,0,0,0,0,-0.7641,-0.764,-0.7583,-0.7582,-0.7581,-0.7528,-0.7527,-0.7526,-0.7472,-0.7471,-0.7471,-0.747,-0.7414,-0.7413,-0.7412,0,0,0,0,0,0,0,0,0,0,0,0,0,-0.7604,-0.764,-0.7583,-0.7548,-0.7544,-0.7528,-0.7527,-0.7526,-0.7472,-0.7471,-0.747,-0.7469,-0.7414,-0.7413,-0.7412,-0.7425,0,0,-0.7408,-0.7407,0,0,0,0,0,0,0,0,-0.7606,-0.7602,-0.7554,-0.755,-0.7546,-0.7506,-0.7527,-0.7492,-0.7473,-0.75,-0.747,-0.7469,-0.7445,-0.7441,-0.7433,-0.7423,-0.742,-0.7408,-0.7407,-0.7406,-0.7406,0,0,0,0,0,0,0,-0.7609,-0.7604,-0.7561,-0.7553,-0.7549,-0.7535,-0.7529,-0.752,-0.7479,-0.7497,-0.7493,-0.7487,-0.7443,-0.7435,-0.7431,-0.7419,-0.7408,-0.7407,-0.7406,-0.7405,-0.7417,-0.7418,0,0,0,0,0,0,-0.7617,-0.7606,-0.7563,-0.7559,-0.7574,-0.7535,-0.7528,-0.752,-0.7479,-0.7472,-0.7488,-0.7485,-0.7437,-0.7433,-0.7429,-0.7443,-0.7406,-0.7405,-0.7404,-0.7416,-0.7418,-0.7419,0,0,0,0,0,0,-0.7618,-0.7613,-0.7565,-0.7582,-0.7575,-0.7535,-0.7527,-0.7519,-0.7511,-0.7472,-0.7465,-0.7488,-0.7436,-0.7431,-0.7427,-0.744,-0.7405,-0.7403,-0.7415,-0.7417,-0.7418,-0.747,0,0,0,0,0,0,-0.762,-0.7614,-0.7619,-0.7582,-0.7574,-0.7564,-0.7527,-0.7519,-0.7509,-0.7504,-0.7469,-0.7463,-0.7435,-0.7429,-0.7425,-0.7438,-0.7402,-0.7414,-0.7416,-0.7418,-0.7467,-0.7474,-0.7479,0,0,0,0,0,-0.7622,-0.7636,-0.762,-0.7615,-0.7579,-0.7564,-0.756,-0.7528,-0.751,-0.7515,-0.749,-0.7464,-0.7439,-0.7429,-0.7425,-0.7437,-0.7413,-0.7415,-0.7418,-0.7465,-0.7472,-0.7479,0,0,0,0,0,0,-0.7675,-0.763,-0.7612,-0.7614,-0.7593,-0.7555,-0.756,-0.7537,-0.7521,-0.7517,-0.7477,-0.747,-0.747,-0.7453,-0.7442,-0.7448,-0.7422,-0.7424,-0.746,-0.7467,-0.7472,-0.7477,-0.7401,0,0,0,0,0,-0.7687,-0.7679,-0.764,-0.7645,-0.7636,-0.76,-0.7592,-0.7569,-0.7547,-0.7538,-0.7513,-0.7492,-0.7479,-0.7472,-0.7458,-0.7464,-0.7456,-0.747,-0.7476,-0.7481,-0.7484,-0.7486,-0.7492,-0.7427,-0.7427,-0.7427,0,0,-0.7711,-0.7686,-0.7683,-0.7655,-0.7637,-0.763,-0.7593,-0.7587,-0.7581,-0.7537,-0.7532,-0.7512,-0.7486,-0.7487,-0.7487,-0.7473,-0.75,-0.7484,-0.7489,-0.7488,-0.7489,-0.7496,-0.7501,-0.7428,-0.7428,-0.7428,0,0,-0.7752,-0.7732,-0.7735,-0.7717,-0.7689,-0.7665,-0.7666,-0.7631,-0.7617,-0.7611,-0.7578,-0.757,-0.7549,-0.7532,-0.7521,-0.7555,-0.7531,-0.7552,-0.7583,-0.7586,-0.7591,-0.7595,-0.7608,-0.7614,-0.7554,-0.7554,-0.7554,0,-0.7786,-0.7774,-0.7739,-0.7735,-0.7724,-0.7683,-0.7686,-0.767,-0.764,-0.7633,-0.7618,-0.7591,-0.757,-0.7567,-0.7576,-0.7568,-0.7568,-0.7556,-0.7593,-0.7597,-0.7601,-0.7613,-0.7618,-0.7557,-0.7556,-0.7556,-0.7556,0,-0.7817,-0.7809,-0.7815,-0.7787,-0.7776,-0.7775,-0.774,-0.7734,-0.7711,-0.7689,-0.7684,-0.7657,-0.7638,-0.7635,-0.7613,-0.7629,-0.7622,-0.76,-0.7574,-0.761,-0.7621,-0.7625,-0.7561,-0.756,-0.7559,-0.7558,0,0,-0.7891,-0.7843,-0.7846,-0.7833,-0.7799,-0.7793,-0.779,-0.7771,-0.7767,-0.7746,-0.7744,-0.7727,-0.7707,-0.7694,-0.767,-0.7672,-0.7702,-0.765,-0.7649,-0.7662,-0.7719,-0.7737,-0.7743,-0.7686,-0.7686,-0.7687,-0.7722,0,-0.7927,-0.792,-0.7889,-0.7891,-0.7884,-0.7845,-0.7843,-0.7822,-0.7801,-0.7791,-0.7767,-0.7757,-0.7731,-0.7723,-0.7723,-0.7699,-0.7714,-0.7695,-0.7683,-0.7683,-0.7692,-0.7748,-0.7766,-0.78,-0.7726,-0.7726,-0.7727,0,-0.7968,-0.7952,-0.7954,-0.7921,-0.7916,-0.7915,-0.7895,-0.7886,-0.7862,-0.7846,-0.7832,-0.7805,-0.78,-0.7775,-0.7768,-0.7756,-0.7749,-0.7736,-0.7737,-0.7735,-0.7708,-0.7749,-0.781,-0.7816,-0.7733,-0.7732,-0.7732,0,-0.8023,-0.8001,-0.7999,-0.7989,-0.795,-0.795,-0.7934,-0.7909,-0.79,-0.7882,-0.7876,-0.7858,-0.7849,-0.7835,-0.7804,-0.7788,-0.7801,-0.7773,-0.7789,-0.779,-0.7794,-0.7794,-0.7856,-0.7788,-0.7787,-0.7787,-0.7787,0,-0.8068,-0.8071,-0.8024,-0.8023,-0.8025,-0.7988,-0.7992,-0.7972,-0.7949,-0.7944,-0.7909,-0.7905,-0.7863,-0.7854,-0.7829,-0.7828,-0.7824,-0.7811,-0.7805,-0.7815,-0.7817,-0.7811,-0.7808,-0.7789,-0.7788,-0.7788,-0.7788,0,-0.813,-0.8098,-0.8094,-0.8058,-0.8049,-0.8052,-0.8021,-0.8019,-0.7995,-0.7989,-0.7985,-0.7948,-0.7936,-0.7903,-0.7882,-0.7866,-0.7871,-0.7859,-0.788,-0.7876,-0.7894,-0.7893,-0.7955,-0.7962,-0.7888,-0.7889,-0.7889,0,-0.8161,-0.8162,-0.8126,-0.812,-0.8106,-0.8096,-0.8087,-0.805,-0.8042,-0.8014,-0.8016,-0.8001,-0.7987,-0.7969,-0.794,-0.7924,-0.7911,-0.7934,-0.7909,-0.7919,-0.7913,-0.7914,-0.7914,-0.794,-0.7941,-0.7942,-0.7943,0,-0.822,-0.8204,-0.8192,-0.8174,-0.8164,-0.8148,-0.813,-0.8127,-0.8087,-0.8079,-0.8066,-0.8055,-0.8034,-0.802,-0.7999,-0.7982,-0.7956,-0.7951,-0.7954,-0.7965,-0.7978,-0.7972,-0.7896,-0.795,-0.7949,-0.7948,-0.7948,-0.7948,-0.8268,-0.8268,-0.8243,-0.823,-0.8213,-0.8197,-0.8194,-0.817,-0.8158,-0.8138,-0.8117,-0.8107,-0.8082,-0.8052,-0.8037,-0.8028,-0.8014,-0.8018,-0.802,-0.8022,-0.8027,-0.7978,-0.8024,-0.8024,-0.8024,-0.8023,-0.8023,0,-0.8326,-0.8308,-0.8297,-0.8273,-0.8264,-0.8239,-0.8218,-0.8212,-0.8203,-0.8183,-0.817,-0.8155,-0.8141,-0.8111,-0.8094,-0.8093,-0.8081,-0.809,-0.809,-0.8087,-0.8039,-0.8039,-0.81,-0.81,-0.81,-0.81,-0.81,-0.81,-0.8356,-0.8354,-0.8336,-0.8325,-0.8307,-0.8296,-0.8287,-0.8272,-0.8256,-0.8241,-0.8229,-0.821,-0.8185,-0.8166,-0.8152,-0.8144,-0.814,-0.8153,-0.8141,-0.8098,-0.809,-0.8083,-0.8083,-0.8152,-0.8152,-0.819,-0.819,-0.819]},{"header":{"parameterUnit":"m.s-1","parameterCategory":1,"la1":30.2991,"la2":30.254,"lo1":-89.0895,"lo2":-89.0444,"dy":0.0017,"dx":0.0017,"nx":28,"ny":28,"refTime":"2023-07-24T09:00:00:Z","depth":0,"parameterNumber":3,"parameterNumberName":"V-component_of_WINDS"},"data":[0,0,0,0,0,0,0,0,0,0,0,0,0,0,0,0,0,0,0,0,0,0,0,0,0,0,0,0,0,0,0,0,0,0,0,0,0,0,0,0,0,0,0,0,0,0,0,0,0,0,0,0,0,0,0,0,0,0,-3.0283,-3.0283,0,-3.0294,-3.0294,-3.0295,-3.0256,-3.0255,-3.0254,-3.0253,-3.0262,-3.0263,-3.0265,0,0,0,0,0,0,0,0,0,0,0,0,0,-3.0227,-3.0228,-3.0283,-3.0283,-3.0283,-3.0294,-3.0294,-3.0295,-3.0256,-3.0255,-3.0253,-3.0252,-3.0262,-3.0263,-3.0265,0,0,0,0,0,0,0,0,0,0,0,0,0,-3.0246,-3.0229,-3.0283,-3.0266,-3.0264,-3.0294,-3.0294,-3.0295,-3.0257,-3.0255,-3.0253,-3.0251,-3.0261,-3.0263,-3.0265,-3.0312,0,0,-3.0271,-3.0272,0,0,0,0,0,0,0,0,-3.0245,-3.0248,-3.0268,-3.0267,-3.0265,-3.0272,-3.0278,-3.03,-3.0257,-3.0259,-3.0253,-3.0251,-3.0267,-3.0268,-3.0274,-3.0312,-3.0313,-3.0271,-3.0272,-3.0273,-3.0274,0,0,0,0,0,0,0,-3.0244,-3.0248,-3.0287,-3.0268,-3.0267,-3.0257,-3.0258,-3.0282,-3.0272,-3.0259,-3.0256,-3.0258,-3.0266,-3.0272,-3.0274,-3.0313,-3.0271,-3.0273,-3.0274,-3.0275,-3.0392,-3.0394,0,0,0,0,0,0,-3.0245,-3.0247,-3.0287,-3.0288,-3.0251,-3.0259,-3.026,-3.0272,-3.0272,-3.0271,-3.026,-3.0256,-3.027,-3.0272,-3.0274,-3.033,-3.0273,-3.0275,-3.0276,-3.039,-3.0392,-3.0394,0,0,0,0,0,0,-3.0244,-3.0249,-3.0287,-3.0267,-3.0271,-3.0262,-3.0275,-3.0273,-3.0279,-3.0273,-3.0271,-3.0268,-3.0268,-3.0271,-3.0303,-3.033,-3.0276,-3.0278,-3.0388,-3.0391,-3.0393,-3.0443,0,0,0,0,0,0,-3.0243,-3.0249,-3.0267,-3.0267,-3.0272,-3.0316,-3.0277,-3.0274,-3.0283,-3.0279,-3.028,-3.0279,-3.0267,-3.0301,-3.0305,-3.0332,-3.0279,-3.0385,-3.0389,-3.0392,-3.0439,-3.0447,-3.0454,0,0,0,0,0,-3.0241,-3.0279,-3.0268,-3.0273,-3.0294,-3.0318,-3.032,-3.0307,-3.0285,-3.0303,-3.0299,-3.0279,-3.0326,-3.0304,-3.0309,-3.0337,-3.0384,-3.0388,-3.0392,-3.0435,-3.0445,-3.0454,0,0,0,0,0,0,-3.0281,-3.0279,-3.0266,-3.0306,-3.0313,-3.0311,-3.0333,-3.0318,-3.033,-3.0325,-3.0307,-3.0308,-3.0343,-3.0343,-3.0318,-3.0383,-3.0351,-3.0357,-3.0382,-3.0392,-3.0399,-3.0399,-3.0281,0,0,0,0,0,-3.0295,-3.0315,-3.0312,-3.0347,-3.0351,-3.0342,-3.0352,-3.0341,-3.0346,-3.0349,-3.0347,-3.0353,-3.0369,-3.038,-3.0394,-3.0438,-3.0438,-3.0459,-3.0467,-3.0473,-3.0479,-3.0503,-3.0513,-3.0409,-3.0408,-3.0408,0,0,-3.0323,-3.0324,-3.0338,-3.0355,-3.0359,-3.038,-3.0344,-3.0368,-3.0383,-3.0352,-3.0383,-3.0382,-3.0387,-3.0426,-3.0442,-3.0426,-3.0508,-3.0479,-3.0484,-3.0486,-3.0509,-3.0519,-3.0528,-3.0411,-3.0411,-3.041,0,0,-3.0385,-3.0388,-3.0419,-3.0424,-3.0431,-3.0424,-3.0432,-3.0433,-3.0432,-3.0463,-3.044,-3.0458,-3.0486,-3.0491,-3.0497,-3.0564,-3.0546,-3.0569,-3.0609,-3.0633,-3.0642,-3.0649,-3.0674,-3.0683,-3.0574,-3.0574,-3.0574,0,-3.042,-3.0451,-3.0437,-3.0462,-3.0471,-3.0445,-3.0476,-3.0481,-3.0492,-3.0499,-3.048,-3.0517,-3.0518,-3.0558,-3.0575,-3.058,-3.0589,-3.0569,-3.0642,-3.0649,-3.0655,-3.0679,-3.0688,-3.0577,-3.0576,-3.0576,-3.0576,0,-3.0493,-3.0516,-3.054,-3.0553,-3.0564,-3.0592,-3.0582,-3.0595,-3.0583,-3.0579,-3.0612,-3.0613,-3.0628,-3.0636,-3.0624,-3.0675,-3.0665,-3.0645,-3.0613,-3.0668,-3.0691,-3.0699,-3.0581,-3.058,-3.0579,-3.0578,0,0,-3.0581,-3.0587,-3.0596,-3.0603,-3.0608,-3.0625,-3.0652,-3.0668,-3.0681,-3.0689,-3.0712,-3.0737,-3.0718,-3.0726,-3.0714,-3.0735,-3.079,-3.0712,-3.0712,-3.0728,-3.0848,-3.0864,-3.0875,-3.0777,-3.0779,-3.078,-3.0848,0,-3.0644,-3.0693,-3.0681,-3.0729,-3.075,-3.0726,-3.0749,-3.0756,-3.0753,-3.077,-3.0766,-3.0785,-3.0758,-3.0763,-3.0782,-3.0779,-3.0814,-3.0774,-3.0799,-3.08,-3.08,-3.0886,-3.0903,-3.0967,-3.0856,-3.0857,-3.0858,0,-3.0724,-3.0737,-3.0788,-3.0792,-3.08,-3.0822,-3.0837,-3.0853,-3.086,-3.0856,-3.0865,-3.085,-3.0877,-3.0844,-3.0882,-3.0855,-3.0865,-3.0865,-3.0867,-3.087,-3.0834,-3.0893,-3.0986,-3.0997,-3.0872,-3.087,-3.087,0,-3.0785,-3.0815,-3.085,-3.0856,-3.0861,-3.0877,-3.088,-3.0885,-3.0896,-3.0908,-3.0915,-3.093,-3.0938,-3.095,-3.094,-3.0917,-3.098,-3.0945,-3.0978,-3.0978,-3.0993,-3.0992,-3.1091,-3.0997,-3.0997,-3.0997,-3.0996,0,-3.0857,-3.089,-3.0878,-3.0899,-3.0935,-3.0921,-3.0956,-3.0956,-3.0961,-3.0982,-3.0961,-3.0981,-3.0965,-3.0984,-3.0975,-3.1009,-3.1012,-3.101,-3.1008,-3.1013,-3.1013,-3.102,-3.1016,-3.0999,-3.0999,-3.0998,-3.0998,0,-3.0932,-3.0926,-3.0962,-3.0965,-3.0966,-3.0992,-3.0994,-3.1014,-3.101,-3.1037,-3.1042,-3.1035,-3.1056,-3.1047,-3.1068,-3.1062,-3.1106,-3.1097,-3.1104,-3.1102,-3.1136,-3.1134,-3.1243,-3.1258,-3.1153,-3.1154,-3.1155,0,-3.0979,-3.1004,-3.101,-3.1023,-3.1028,-3.1049,-3.106,-3.1048,-3.1061,-3.1071,-3.109,-3.1109,-3.1124,-3.1158,-3.1155,-3.1172,-3.1164,-3.1201,-3.1166,-3.1171,-3.1166,-3.1166,-3.1169,-3.1209,-3.121,-3.1211,-3.1212,0,-3.1064,-3.106,-3.1078,-3.1096,-3.1111,-3.1123,-3.1134,-3.1146,-3.1134,-3.1149,-3.1171,-3.1183,-3.1206,-3.1225,-3.124,-3.1242,-3.1226,-3.1223,-3.1231,-3.1237,-3.1241,-3.1241,-3.1125,-3.122,-3.1219,-3.1219,-3.1218,-3.1218,-3.1128,-3.1149,-3.1158,-3.1179,-3.1186,-3.1197,-3.1216,-3.1215,-3.1234,-3.1252,-3.1243,-3.1269,-3.1276,-3.1294,-3.1299,-3.1319,-3.1304,-3.1316,-3.132,-3.1323,-3.1329,-3.1237,-3.1321,-3.1321,-3.1321,-3.1321,-3.132,0,-3.1213,-3.1218,-3.1237,-3.1254,-3.1271,-3.1254,-3.1266,-3.1281,-3.1304,-3.1313,-3.1329,-3.1354,-3.1374,-3.1372,-3.139,-3.1407,-3.1399,-3.1412,-3.1411,-3.1412,-3.134,-3.1331,-3.1418,-3.1418,-3.1417,-3.1417,-3.1417,-3.1417,-3.126,-3.1296,-3.1293,-3.1333,-3.1336,-3.1363,-3.1371,-3.1381,-3.1388,-3.1418,-3.1435,-3.1434,-3.1439,-3.1457,-3.1475,-3.1474,-3.1482,-3.1498,-3.1494,-3.1427,-3.1417,-3.1408,-3.14,-3.1499,-3.1499,-3.1565,-3.1566,-3.1566]}]]